Weather reports worldwide

Advertisment
Greifswalder Oie, Germany (10097): temperature & dewpoint: 11.10.2018 08:00:00 - 17.10.2018 08:00:00 (CEST)Greifswalder Oie, Germany (10097): temperature 5cm & temperature -5cm: 11.10.2018 08:00:00 - 17.10.2018 08:00:00 (CEST)Greifswalder Oie, Germany (10097): temperature -20cm & temperature -100cm: 11.10.2018 08:00:00 - 17.10.2018 08:00:00 (CEST)Greifswalder Oie, Germany (10097): water temperature: 11.10.2018 08:00:00 - 17.10.2018 08:00:00 (CEST)Greifswalder Oie, Germany (10097): wind speed & gusts: 11.10.2018 08:00:00 - 17.10.2018 08:00:00 (CEST)Greifswalder Oie, Germany (10097): wind direction: 11.10.2018 08:00:00 - 17.10.2018 08:00:00 (CEST)Greifswalder Oie, Germany (10097): reduced air pressure: 11.10.2018 08:00:00 - 17.10.2018 08:00:00 (CEST)Greifswalder Oie, Germany (10097): visibility: 11.10.2018 08:00:00 - 17.10.2018 08:00:00 (CEST)Greifswalder Oie, Germany (10097): sunshine duration: 11.10.2018 08:00:00 - 17.10.2018 08:00:00 (CEST)Greifswalder Oie, Germany (10097): precipitation: 11.10.2018 08:00:00 - 17.10.2018 08:00:00 (CEST)
Date & Time tt [°C] td [°C] tt 5cm [°C] tt -5cm [°C] tt -20cm [°C] tt -100cm [°C] tw [°C] ff [km/h] ff [kn] fx [km/h] fx [kn] dd ppp [hPa] vv [km] sd [min] rr [mm]
17.10.2018 08:00:00 11,6 11,0 5,2 9,4 12,7 14,2 13,4 3 1 7 4 E 1019,6 3,6 0 0,0
17.10.2018 07:00:00 11,9 11,1 5,7 9,8 12,9 14,2 13,4 6 3 7 4 WNW 1019,3 3,1 0 0,0
17.10.2018 06:00:00 12,0 10,3 4,9 10,3 13,1 14,2 13,5 4 2 6 4 SW 1019,0 7 0 0,0
17.10.2018 05:00:00 12,3 11,4 7,0 11,0 13,3 14,2 13,5 5 3 10 5 WNW 1019,1 4,4 0 0,0
17.10.2018 04:00:00 13,0 11,1 10,7 11,1 13,5 14,2 13,5 8 4 12 6 SSW 1019,0 7 0 0,0
17.10.2018 03:00:00 13,5 10,3 10,2 11,1 13,7 14,2 13,5 9 5 11 6 S 1019,1 8 0 0,0
17.10.2018 02:00:00 13,9 9,4 9,5 11,4 13,9 14,2 13,5 7 4 14 8 SSE 1019,0 10 0 0,0
17.10.2018 01:00:00 13,2 11,4 7,2 11,4 14,1 14,2 13,5 0 0 7 4 N 1019,0 3,5 0 0,0
17.10.2018 00:00:00 13,0 11,9 7,7 12,0 14,4 14,2 13,6 3 2 9 5 S 1019,4 4,0 0 0,0
16.10.2018 23:00:00 13,5 11,0 8,5 12,7 14,6 14,2 13,5 6 4 13 7 S 1019,4 6 0 0,0
16.10.2018 22:00:00 13,9 11,6 11,2 13,1 14,9 14,2 13,6 12 6 15 8 SSE 1019,5 7 0 0,0
16.10.2018 21:00:00 13,9 11,5 11,7 13,6 15,1 14,2 13,8 12 7 16 9 SE 1019,5 6 0 0,0
16.10.2018 20:00:00 14,0 11,3 11,5 14,2 15,3 14,2 13,8 10 6 16 9 SE 1019,3 6 0 0,0
16.10.2018 19:00:00 14,3 11,3 11,5 15,0 15,5 14,2 13,9 12 6 16 9 SE 1019,0 9 0 0,0
16.10.2018 18:00:00 14,2 11,0 12,6 16,7 15,6 14,2 14,0 11 6 14 7 ESE 1018,7 11 42 0,0
16.10.2018 17:00:00 15,2 10,1 16,7 18,4 15,4 14,2 14,2 9 5 14 8 ESE 1018,5 12 60 0,0
16.10.2018 16:00:00 15,0 11,7 18,4 19,2 15,0 14,2 14,1 9 5 13 7 ESE 1018,3 12 60 0,0
16.10.2018 15:00:00 17,0 9,2 20,2 19,6 14,5 14,2 13,8 3 2 11 6 ESE 1018,5 14 60 0,0
16.10.2018 14:00:00 16,4 8,7 21,5 18,7 13,9 14,2 13,8 3 2 11 6 S 1018,3 13 60 0,0
16.10.2018 13:00:00 15,0 9,9 19,1 17,2 13,4 14,2 13,7 9 5 16 8 SE 1018,6 14 60 0,0
16.10.2018 12:00:00 14,3 9,8 17,4 15,2 13,0 14,2 13,4 10 5 16 9 SE 1018,4 12 60 0,0
16.10.2018 11:00:00 14,1 9,0 15,4 13,1 12,8 14,2 13,2 7 4 16 8 S 1018,2 14 60 0,0
16.10.2018 10:00:00 13,3 8,9 13,8 11,7 12,8 14,2 13,1 10 6 17 9 SSE 1017,9 14 60 0,0
16.10.2018 09:00:00 12,6 9,0 11,6 10,8 12,9 14,2 13,1 10 6 18 10 S 1017,9 18 39 0,0
16.10.2018 08:00:00 12,4 8,9 10,1 10,7 13,1 14,2 13,1 9 5 17 9 S 1017,4 15 0 0,0
16.10.2018 07:00:00 12,6 9,0 10,3 10,8 13,2 14,2 13,2 11 6 17 9 SSE 1017,1 15 0 0,0
16.10.2018 06:00:00 12,6 9,0 10,2 11,0 13,4 14,2 13,3 10 5 17 9 S 1017,1 14 0 0,0
16.10.2018 05:00:00 12,4 8,8 8,5 11,2 13,6 14,2 13,3 8 4 16 9 SSW 1016,9 15 0 0,0
16.10.2018 04:00:00 13,1 10,2 10,7 11,4 13,8 14,2 13,4 11 6 15 8 SSE 1016,5 14 0 0,0
16.10.2018 03:00:00 13,3 8,3 10,4 11,7 14,0 14,2 13,4 11 6 16 9 S 1016,4 18 0 0,0
16.10.2018 02:00:00 13,3 10,1 10,5 11,9 14,2 14,2 13,4 11 6 15 8 S 1016,5 15 0 0,0
16.10.2018 01:00:00 13,7 9,7 11,3 12,3 14,4 14,2 13,5 11 6 18 10 SSE 1016,3 15 0 0,0
16.10.2018 00:00:00 13,8 9,6 11,0 12,6 14,6 14,2 13,6 12 7 20 11 S 1016,1 17 0 0,0
15.10.2018 23:00:00 14,8 7,6 12,1 13,0 14,9 14,2 13,7 12 7 21 12 S 1016,0 20 0 0,0
15.10.2018 22:00:00 15,5 8,4 13,2 13,5 15,1 14,2 13,9 14 8 21 11 S 1016,1 19 0 0,0
15.10.2018 21:00:00 15,7 8,9 13,5 14,0 15,3 14,2 13,8 15 8 22 12 S 1016,2 19 0 0,0
15.10.2018 20:00:00 15,6 9,5 13,4 14,5 15,5 14,2 13,8 14 8 22 12 SSE 1016,0 18 0 0,0
15.10.2018 19:00:00 15,8 9,7 13,7 15,4 15,7 14,2 13,9 12 6 20 11 SSE 1015,8 19 0 0,0
15.10.2018 18:00:00 16,1 9,8 14,8 17,3 15,7 14,2 13,9 12 6 24 13 SSE 1015,4 21 59 0,0
15.10.2018 17:00:00 16,8 9,8 18,6 18,7 15,4 14,2 14,1 12 6 20 11 SE 1014,8 18 60 0,0
15.10.2018 16:00:00 16,4 10,2 19,8 18,8 15,1 14,2 14,1 12 7 25 14 SE 1015,1 17 60 0,0
15.10.2018 15:00:00 15,9 10,2 18,7 18,8 14,7 14,2 13,8 20 11 31 17 SE 1015,1 14 52 0,0
15.10.2018 14:00:00 16,5 10,1 20,8 17,8 14,2 14,2 13,8 14 8 19 11 ESE 1015,2 16 48 0,0
15.10.2018 13:00:00 16,2 9,3 18,7 17,1 13,8 14,2 13,6 8 5 25 13 SSE 1015,2 18 57 0,0
15.10.2018 12:00:00 15,8 9,2 18,4 15,4 13,4 14,2 13,4 11 6 27 14 SSE 1015,5 16 55 0,0
15.10.2018 11:00:00 15,1 8,5 16,4 13,8 13,2 14,2 13,3 13 7 25 13 SSE 1015,6 12 60 0,0
15.10.2018 10:00:00 14,4 8,2 14,4 12,3 13,2 14,2 13,2 15 8 27 15 S 1015,5 15 60 0,0
15.10.2018 09:00:00 13,7 8,9 12,7 11,5 13,3 14,2 13,2 11 6 28 15 SSE 1015,3 16 56 0,0
15.10.2018 08:00:00 13,5 8,7 12,1 11,5 13,4 14,2 13,1 15 8 30 16 SSE 1014,9 20 0 0,0
15.10.2018 07:00:00 13,8 8,8 12,0 11,6 13,5 14,2 13,2 18 10 33 18 SSE 1014,6 19 0 0,0
15.10.2018 06:00:00 14,1 8,9 12,4 11,7 13,7 14,2 13,3 18 10 29 15 SSE 1014,6 19 0 0,0
15.10.2018 05:00:00 14,4 9,3 12,5 11,9 13,8 14,2 13,4 16 8 29 16 SSE 1014,5 19 0 0,0
15.10.2018 04:00:00 14,5 9,4 12,6 12,0 14,0 14,2 13,4 16 9 29 15 SSE 1014,5 19 0 0,0
15.10.2018 03:00:00 14,6 9,8 12,5 12,1 14,2 14,2 13,7 13 7 27 15 SSE 1014,7 18 0 0,0
15.10.2018 02:00:00 14,2 10,9 12,1 12,3 14,4 14,2 13,7 13 7 20 11 SSE 1014,7 14 0 0,0
15.10.2018 01:00:00 14,5 10,8 11,7 12,5 14,6 14,2 13,7 11 6 20 11 SSE 1014,5 14 0 0,0
15.10.2018 00:00:00 14,5 11,0 11,9 12,8 14,8 14,2 13,8 10 5 20 11 SSE 1014,3 14 0 0,0
14.10.2018 23:00:00 14,2 11,3 11,9 13,3 15,0 14,2 13,9 10 5 23 12 ESE 1014,5 11 0 0,0
14.10.2018 22:00:00 15,5 11,0 13,7 13,8 15,2 14,2 13,9 17 9 28 15 SE 1014,2 14 0 0,0
14.10.2018 21:00:00 15,5 11,2 13,5 14,1 15,5 14,2 14,0 16 8 23 13 SE 1014,5 14 0 0,0
14.10.2018 20:00:00 15,5 11,0 13,6 14,7 15,7 14,2 14,0 11 6 27 14 SSE 1014,6 16 0 0,0
14.10.2018 19:00:00 16,2 10,5 14,2 15,5 15,9 14,2 14,1 17 9 25 13 SE 1014,5 18 0 0,0
14.10.2018 18:00:00 17,0 10,2 15,2 17,2 15,9 14,2 14,2 11 6 26 14 SSE 1014,6 19 60 0,0
14.10.2018 17:00:00 17,3 10,5 18,2 18,5 15,7 14,2 14,4 19 11 27 15 SE 1014,5 12 60 0,0
14.10.2018 16:00:00 17,0 11,1 19,5 18,7 15,4 14,2 14,4 17 9 30 16 SE 1014,6 9 60 0,0
14.10.2018 15:00:00 16,7 11,0 18,5 19,4 14,9 14,2 14,3 19 11 30 16 SE 1015,0 8 60 0,0
14.10.2018 14:00:00 16,7 10,7 19,7 18,4 14,5 14,2 14,1 21 11 42 23 SE 1015,4 7 60 0,0
14.10.2018 13:00:00 15,8 10,6 18,3 17,2 14,0 14,2 14,0 24 13 39 21 SE 1015,8 4,7 60 0,0
14.10.2018 12:00:00 15,2 10,5 17,0 15,5 13,7 14,2 13,7 21 11 41 22 SE 1016,7 5 60 0,0
14.10.2018 11:00:00 14,3 10,0 15,1 13,6 13,6 14,1 13,5 27 15 46 25 SE 1017,1 5 60 0,0
14.10.2018 10:00:00 13,5 9,9 13,7 12,5 13,6 14,1 13,5 29 15 39 21 SE 1017,6 6 60 0,0
14.10.2018 09:00:00 13,3 9,9 12,5 11,9 13,7 14,1 13,5 24 13 35 19 SE 1017,9 9 56 0,0
14.10.2018 08:00:00 13,0 10,4 11,4 11,8 13,9 14,1 13,5 18 10 31 17 SE 1018,1 6 0 0,0
14.10.2018 07:00:00 13,1 10,6 11,7 11,9 14,0 14,1 13,6 19 10 31 17 SE 1018,4 6 0 0,0
14.10.2018 06:00:00 13,3 10,9 11,8 12,2 14,2 14,1 13,7 20 11 27 15 SE 1018,6 6 0 0,0
14.10.2018 05:00:00 13,6 11,0 12,0 12,4 14,4 14,1 13,8 19 10 29 16 SE 1019,0 7 0 0,0
14.10.2018 04:00:00 13,9 11,2 12,4 12,6 14,6 14,1 13,8 21 11 29 16 SE 1019,4 7 0 0,0
14.10.2018 03:00:00 13,7 11,4 11,9 12,8 14,8 14,1 13,9 14 8 24 13 SE 1020,1 7 0 0,0
14.10.2018 02:00:00 13,8 11,6 12,2 13,1 15,0 14,1 13,9 16 8 24 13 SE 1020,5 7 0 0,0
14.10.2018 01:00:00 14,3 11,7 12,5 13,4 15,2 14,1 14,0 14 8 25 14 SE 1021,0 7 0 0,0
14.10.2018 00:00:00 14,6 11,7 13,1 13,9 15,5 14,1 13,9 17 9 29 16 SE 1021,1 7 0 0,0
13.10.2018 23:00:00 15,1 11,7 13,4 14,3 15,7 14,1 14,0 16 9 29 16 SE 1021,4 7 0 0,0
13.10.2018 22:00:00 15,9 11,6 14,4 14,8 15,9 14,1 14,1 21 11 39 21 SE 1021,5 10 0 0,0
13.10.2018 21:00:00 17,1 11,7 15,6 15,2 16,1 14,1 14,2 23 13 34 18 SE 1021,6 11 0 0,0
13.10.2018 20:00:00 16,3 12,2 15,0 15,9 16,4 14,1 14,2 21 11 32 18 SE 1021,8 10 0 0,0
13.10.2018 19:00:00 16,8 12,1 15,6 16,8 16,5 14,1 14,2 24 13 36 20 SE 1021,8 10 8 0,0
13.10.2018 18:00:00 17,5 12,2 16,7 18,3 16,5 14,1 14,3 21 12 30 16 SE 1021,9 9 60 0,0
13.10.2018 17:00:00 16,9 12,4 18,4 19,9 16,3 14,1 14,4 20 11 27 15 SE 1022,3 8 60 0,0
13.10.2018 16:00:00 17,5 12,7 21,3 20,4 16,0 14,1 14,7 9 5 22 12 SE 1022,6 7 60 0,0
13.10.2018 15:00:00 17,3 12,7 20,5 20,8 15,5 14,1 14,6 14 8 26 14 SE 1023,1 4,8 60 0,0
13.10.2018 14:00:00 16,3 12,5 20,8 20,2 14,9 14,1 14,5 12 7 20 11 SE 1023,6 5 60 0,0
13.10.2018 13:00:00 16,4 12,0 20,3 18,9 14,3 14,0 14,2 12 7 20 11 SE 1024,0 7 60 0,0
13.10.2018 12:00:00 16,6 11,7 19,3 16,7 13,9 14,0 13,9 11 6 24 13 SSE 1024,2 8 60 0,0
13.10.2018 11:00:00 15,6 11,4 16,8 14,7 13,7 14,0 13,6 13 7 26 14 SSE 1024,1 7 60 0,0
13.10.2018 10:00:00 14,7 11,2 15,3 13,2 13,6 14,0 13,4 14 8 26 14 SSE 1024,4 6 60 0,0
13.10.2018 09:00:00 13,9 11,2 13,3 12,3 13,7 14,0 13,4 15 8 24 13 S 1024,4 7 60 0,0
13.10.2018 08:00:00 13,7 11,4 12,2 12,2 13,8 14,0 13,4 11 6 23 12 SSE 1024,1 8 5 0,0
13.10.2018 07:00:00 13,6 11,3 12,0 12,3 13,9 14,0 13,5 13 7 21 11 S 1023,9 8 0 0,0
13.10.2018 06:00:00 13,8 11,5 12,3 12,5 14,1 14,0 13,7 13 7 19 11 SSE 1023,8 8 0 0,0
13.10.2018 05:00:00 14,1 11,3 12,5 12,6 14,2 14,0 13,6 13 7 23 12 SSE 1023,9 9 0 0,0
13.10.2018 04:00:00 14,2 11,4 12,6 12,8 14,4 14,0 13,6 14 8 24 13 SSE 1023,8 9 0 0,0
13.10.2018 03:00:00 14,6 11,4 13,1 12,9 14,5 14,0 13,8 14 8 23 12 SSE 1023,7 10 0 0,0
13.10.2018 02:00:00 14,5 11,5 12,8 13,0 14,7 14,0 13,8 12 6 22 12 SSE 1023,8 10 0 0,0
13.10.2018 01:00:00 14,4 11,6 12,7 13,3 14,9 14,0 13,8 12 6 18 10 SSE 1023,9 10 0 0,0
13.10.2018 00:00:00 15,0 11,7 12,9 13,6 15,2 14,0 13,8 12 7 19 10 SSE 1023,7 11 0 0,0
12.10.2018 23:00:00 14,2 12,2 12,4 13,9 15,4 14,0 13,8 12 7 19 10 SE 1023,8 9 0 0,0
12.10.2018 22:00:00 15,2 11,9 13,4 14,4 15,6 14,0 13,9 12 7 19 10 SSE 1023,9 11 0 0,0
12.10.2018 21:00:00 15,8 11,7 14,1 15,0 15,9 14,0 14,0 13 7 21 11 SSE 1023,7 12 0 0,0
12.10.2018 20:00:00 16,8 11,5 15,0 15,5 16,1 14,0 14,1 14 8 22 12 SSE 1023,6 15 0 0,0
12.10.2018 19:00:00 15,5 12,1 13,7 16,4 16,3 14,0 14,2 11 6 21 12 SSE 1023,1 12 0 0,0
12.10.2018 18:00:00 16,0 12,1 15,6 18,3 16,3 14,0 14,2 16 8 21 12 SE 1022,4 11 59 0,0
12.10.2018 17:00:00 17,2 12,0 19,4 19,9 16,0 14,0 14,3 14 7 21 11 SE 1022,1 13 60 0,0
12.10.2018 16:00:00 17,6 11,8 21,3 20,5 15,6 13,9 14,4 13 7 21 11 SSE 1022,2 12 60 0,0
12.10.2018 15:00:00 17,9 12,0 22,3 20,7 15,0 13,9 14,3 11 6 22 12 SSE 1022,0 19 60 0,0
12.10.2018 14:00:00 17,2 11,5 21,1 19,7 14,4 13,9 14,0 13 7 24 13 SSE 1021,7 14 60 0,0
12.10.2018 13:00:00 17,2 11,4 20,4 18,2 13,9 13,9 13,7 12 7 22 12 SSE 1021,8 13 60 0,0
12.10.2018 12:00:00 16,4 11,2 18,5 16,2 13,5 13,9 13,5 13 7 23 12 S 1022,4 12 60 0,0
12.10.2018 11:00:00 15,3 10,7 16,4 14,1 13,3 13,9 13,3 12 7 24 13 SSE 1021,8 11 60 0,0
12.10.2018 10:00:00 14,6 11,5 14,6 12,7 13,2 13,9 13,1 11 6 32 18 SSE 1021,5 8 60 0,0
12.10.2018 09:00:00 13,8 11,3 12,9 11,9 13,3 13,9 13,1 19 10 28 15 SE 1020,8 7 58 0,0
12.10.2018 08:00:00 13,4 11,3 11,6 11,7 13,4 13,9 13,1 11 6 21 12 SSE 1020,6 8 0 0,0
12.10.2018 07:00:00 13,7 11,2 11,8 11,8 13,6 13,9 13,1 12 7 21 11 SE 1020,0 9 0 0,0
12.10.2018 06:00:00 13,4 11,7 11,6 12,0 13,7 13,9 13,3 8 5 22 12 SSE 1020,0 7 0 0,0
12.10.2018 05:00:00 13,8 11,5 12,1 12,3 13,9 13,9 13,3 15 8 27 15 SE 1019,5 8 0 0,0
12.10.2018 04:00:00 13,9 11,5 12,6 12,5 14,0 13,9 13,2 21 12 32 17 SE 1019,0 9 0 0,0
12.10.2018 03:00:00 14,7 11,3 13,2 12,8 14,2 13,9 13,3 23 12 35 19 SE 1019,2 11 0 0,0
12.10.2018 02:00:00 15,0 11,3 13,5 12,9 14,3 13,9 13,3 21 11 33 18 SE 1019,4 11 0 0,0
12.10.2018 01:00:00 15,0 11,4 13,5 13,0 14,5 13,9 13,4 20 11 31 17 SE 1019,2 11 0 0,0
12.10.2018 00:00:00 14,9 11,8 13,3 13,2 14,7 13,9 13,4 19 11 30 16 SE 1019,3 10 0 0,0
11.10.2018 23:00:00 14,8 11,9 13,2 13,5 14,9 13,9 13,4 19 10 29 16 SE 1019,1 10 0 0,0
11.10.2018 22:00:00 15,2 11,8 13,8 14,0 15,1 13,9 13,5 22 12 30 16 ESE 1018,7 11 0 0,0
11.10.2018 21:00:00 16,0 11,4 14,4 14,4 15,4 13,9 13,6 22 12 32 18 ESE 1018,7 15 0 0,0
11.10.2018 20:00:00 16,4 11,0 14,7 14,8 15,6 13,9 13,7 18 10 29 16 SE 1018,5 17 0 0,0
11.10.2018 19:00:00 16,3 11,2 14,3 15,7 15,8 13,9 13,6 16 9 30 16 ESE 1018,1 17 9 0,0
11.10.2018 18:00:00 17,1 11,0 16,1 17,6 15,8 13,8 13,6 20 11 31 17 ESE 1017,9 16 60 0,0
11.10.2018 17:00:00 17,1 11,3 18,1 19,2 15,6 13,8 13,6 24 13 35 19 ESE 1017,9 9 60 0,0
11.10.2018 16:00:00 17,4 11,6 20,2 19,9 15,2 13,8 13,6 19 10 28 15 ESE 1018,4 11 60 0,0
11.10.2018 15:00:00 17,0 12,0 20,2 19,9 14,6 13,8 13,7 19 10 28 15 ESE 1018,8 7 60 0,0
11.10.2018 14:00:00 16,3 12,1 19,7 19,0 14,1 13,8 13,6 18 10 34 18 ESE 1019,3 7 60 0,0
11.10.2018 13:00:00 15,5 12,1 18,4 17,4 13,6 13,8 13,4 22 12 37 20 ESE 1019,6 5 60 0,0
11.10.2018 12:00:00 15,1 11,6 17,2 15,6 13,2 13,8 13,1 26 14 39 21 ESE 1020,1 4,9 60 0,0
11.10.2018 11:00:00 14,6 11,2 15,6 13,8 13,0 13,8 12,9 29 16 41 22 ESE 1020,3 5 60 0,0
11.10.2018 10:00:00 14,2 11,1 14,3 12,6 13,0 13,8 12,7 29 16 43 23 ESE 1020,4 7 60 0,0
11.10.2018 09:00:00 13,9 11,1 13,0 11,9 13,1 13,8 12,7 27 14 38 21 ESE 1020,6 9 60 0,0
11.10.2018 08:00:00 13,6 11,4 12,3 11,8 13,2 13,8 12,7 19 10 31 17 ESE 1020,6 7 1 0,0

tt = temperature
td = dewpoint
tt 5cm = temperature 5cm
tt -5cm = temperature -5cm
tt -20cm = temperature -20cm
tt -100cm = temperature -100cm
tw = water temperature
ff = wind speed
fx = gusts
dd = wind direction
ppp = reduced air pressure
vv = visibility
sd = sunshine duration
rr = precipitation

Next stations